TimeEDT,TemperatureF,Dew PointF,Humidity,Sea Level PressureIn,VisibilityMPH,Wind Direction,Wind SpeedMPH,Gust SpeedMPH,PrecipitationIn,Events,Conditions,WindDirDegrees,DateUTC
12:54 AM,55.9,48.9,77,29.94,10.0,Calm,Calm,-,N/A,,Overcast,0,2013-09-22 04:54:00
1:54 AM,55.9,48.0,75,29.94,10.0,NE,5.8,-,N/A,,Overcast,40,2013-09-22 05:54:00
2:54 AM,55.9,48.0,75,29.96,10.0,NNE,5.8,-,N/A,,Overcast,30,2013-09-22 06:54:00
3:54 AM,55.0,46.0,72,29.96,10.0,Calm,Calm,-,N/A,,Overcast,0,2013-09-22 07:54:00
4:54 AM,54.0,46.9,77,29.97,10.0,North,3.5,-,N/A,,Overcast,10,2013-09-22 08:54:00
5:54 AM,53.1,46.0,77,29.99,10.0,Calm,Calm,-,N/A,,Mostly Cloudy,0,2013-09-22 09:54:00
6:54 AM,48.9,45.0,86,30.00,10.0,Calm,Calm,-,N/A,,Mostly Cloudy,0,2013-09-22 10:54:00
7:54 AM,48.0,44.1,86,30.02,10.0,Calm,Calm,-,N/A,,Partly Cloudy,0,2013-09-22 11:54:00
8:54 AM,51.1,46.9,86,30.03,10.0,Calm,Calm,-,N/A,,Mostly Cloudy,0,2013-09-22 12:54:00
9:54 AM,55.9,44.1,64,30.05,10.0,Variable,3.5,-,N/A,,Overcast,0,2013-09-22 13:54:00
10:54 AM,57.0,43.0,59,30.06,10.0,East,5.8,-,N/A,,Mostly Cloudy,80,2013-09-22 14:54:00
11:54 AM,60.1,44.1,55,30.06,10.0,ENE,5.8,-,N/A,,Mostly Cloudy,60,2013-09-22 15:54:00
12:54 PM,61.0,43.0,52,30.05,10.0,NNW,8.1,-,N/A,,Mostly Cloudy,330,2013-09-22 16:54:00
1:04 PM,62.6,44.6,52,30.05,10.0,North,16.1,20.7,N/A,,Mostly Cloudy,350,2013-09-22 17:04:00
1:54 PM,62.1,43.0,50,30.04,10.0,NNW,9.2,-,N/A,,Mostly Cloudy,330,2013-09-22 17:54:00
2:54 PM,64.0,43.0,46,30.02,10.0,North,4.6,-,N/A,,Partly Cloudy,360,2013-09-22 18:54:00
3:54 PM,64.0,42.1,45,30.02,10.0,NW,10.4,-,N/A,,Partly Cloudy,320,2013-09-22 19:54:00
4:54 PM,63.0,41.0,45,30.01,10.0,North,5.8,-,N/A,,Clear,10,2013-09-22 20:54:00
5:54 PM,62.1,41.0,46,30.03,10.0,North,10.4,-,N/A,,Clear,10,2013-09-22 21:54:00
6:54 PM,59.0,42.1,53,30.04,10.0,North,11.5,-,N/A,,Clear,350,2013-09-22 22:54:00
7:54 PM,55.0,43.0,64,30.05,10.0,NNW,8.1,-,N/A,,Clear,330,2013-09-22 23:54:00
8:54 PM,50.0,44.1,80,30.07,10.0,North,5.8,-,N/A,,Clear,350,2013-09-23 00:54:00
9:54 PM,50.0,43.0,77,30.08,10.0,NNE,6.9,-,N/A,,Clear,30,2013-09-23 01:54:00
10:54 PM,50.0,43.0,77,30.08,10.0,NE,3.5,-,N/A,,Clear,50,2013-09-23 02:54:00
11:54 PM,48.0,42.1,80,30.08,10.0,Calm,Calm,-,N/A,,Clear,0,2013-09-23 03:54:00